Weather in Tzaneen

South Africa     23°49′47″S   30°09′57″E
temp.,
°C
wind,
m/s
gust,
m/s
humid.,
%
clouds,
%
prec.,
mm/h
press.,
hPa
HPBL,
m
27 october, wed
wed2723:00+18s1285100 0.0 1024122
02:00+17s1588100 0.1 1024395
05:00+17se1893100 0.2 1025631
08:00+17ese2795100 0.8 1026712
11:00+17se2693100 1.2 1026636
14:00+22e136696 1.4 10221035
17:00+22ese4663100 0.1 10211056
20:00+20ese4870100 0.2 1023950
28 october, thu
thu2823:00+18ese498199 0.1 1025920
02:00+16se2887100 0.4 1024716
05:00+16ese2789100 0.3 1025658
08:00+16se2584100 0.6 1026725
11:00+18sse2473100 0.3 1024876
14:00+22ese2352100 0.4 10201562
17:00+22e4551100 0.0 10191152
20:00+18sse116726 0.0 102116
29 october, fri
fri2923:00+17sse117374 0.0 102123
02:00+15se1281100 0.0 102084
05:00+15ese1280100 0.0 1020490
08:00+18e1165100 0.0 1020717
11:00+23ne22455 0.0 10171031
14:00+28nne343313 0.0 10121628
17:00+27ene343573 0.0 1010728
20:00+21w0052100 0.0 101211
30 october, sat
sat3023:00+19sw115964 0.0 101211
02:00+18wsw116211 0.0 101211
05:00+20sw11572 0.0 101211
08:00+25e10401 0.0 1012546
11:00+32e342822 0.0 10092042
14:00+31ne342986 0.1 10061171
17:00+20nw238225 3.8 1010115
20:00+21se247228 3.8 1013251
31 october, sun
sun3123:00+18ese387950 0.0 1016775
02:00+17ese3782100 0.1 1016871
05:00+17ese258189 0.1 1017677
08:00+20ese34545 0.1 10181039
11:00+26e33370 0.0 10151507
14:00+29ne32320 0.0 10121947
17:00+27ne32350 0.0 10111632
20:00+22nne11491 0.0 101216